| time (UTC) | temp C | wind direction | speed KPH | gust KPH | rain 1hr cm | rain 24hr cm | rain mn cm | humidity % | barometer mb |
| 20260503211529 | 13 | 248 | 1.6 | 9.7 | 0.00 | 0.03 | 0.00 | 41 | 1011.9 |
| 20260503210029 | 13 | 224 | 3.2 | 12.9 | 0.00 | 0.03 | 0.00 | 39 | 1011.9 |
| 20260503204549 | 13 | 228 | 3.2 | 14.5 | 0.00 | 0.03 | 0.00 | 39 | 1012.1 |
| 20260503203030 | 13 | 207 | 1.6 | 9.7 | 0.00 | 0.03 | 0.00 | 40 | 1012.2 |
| 20260503201530 | 13 | 239 | 3.2 | 9.7 | 0.00 | 0.03 | 0.00 | 42 | 1012.2 |
| 20260503200030 | 13 | 270 | 1.6 | 8.0 | 0.00 | 0.03 | 0.00 | 40 | 1012.5 |
| 20260503194529 | 12 | 219 | 3.2 | 11.3 | 0.00 | 0.03 | 0.00 | 41 | 1012.8 |
| 20260503193029 | 13 | 228 | 1.6 | 11.3 | 0.00 | 0.03 | 0.00 | 41 | 1013.0 |
| 20260503191528 | 13 | 248 | 4.8 | 8.0 | 0.00 | 0.03 | 0.00 | 43 | 1013.2 |
| 20260503190027 | 13 | 205 | 3.2 | 12.9 | 0.00 | 0.03 | 0.00 | 41 | 1013.4 |
| 20260503184533 | 13 | 269 | 3.2 | 12.9 | 0.00 | 0.03 | 0.00 | 39 | 1013.5 |
| 20260503183038 | 13 | 139 | 1.6 | 12.9 | 0.00 | 0.03 | 0.00 | 43 | 1013.5 |
| 20260503181527 | 13 | 257 | 3.2 | 8.0 | 0.00 | 0.03 | 0.00 | 40 | 1013.8 |
| 20260503180032 | 13 | 212 | 1.6 | 8.0 | 0.00 | 0.03 | 0.00 | 42 | 1013.9 |
| 20260503174538 | 13 | 224 | 1.6 | 12.9 | 0.00 | 0.03 | 0.00 | 41 | 1014.2 |
| 20260503173028 | 12 | 208 | 4.8 | 9.7 | 0.00 | 0.03 | 0.00 | 43 | 1014.3 |
| 20260503171533 | 12 | 224 | 4.8 | 14.5 | 0.00 | 0.03 | 0.00 | 41 | 1014.4 |
| 20260503081544 | 0 | 0 | 0.0 | 0.0 | 0.00 | 0.03 | 0.00 | 85 | 1014.6 |
| 20260503071551 | 0 | 0 | 0.0 | 0.0 | 0.00 | 0.03 | 0.00 | 83 | 1014.3 |
| 20260503054534 | 1 | 284 | 0.0 | 3.2 | 0.00 | 0.03 | 0.00 | 78 | 1014.7 |
| 20260503053029 | 1 | 0 | 0.0 | 3.2 | 0.00 | 0.03 | 0.00 | 77 | 1014.7 |
| 20260503051536 | 1 | 286 | 0.0 | 3.2 | 0.00 | 0.03 | 0.00 | 77 | 1014.9 |
| 20260503050030 | 1 | 0 | 0.0 | 3.2 | 0.00 | 0.03 | 0.00 | 76 | 1014.9 |
| 20260503044530 | 1 | 0 | 0.0 | 1.6 | 0.00 | 0.03 | 0.00 | 77 | 1015.0 |
| 20260503043029 | 1 | 0 | 0.0 | 3.2 | 0.00 | 0.03 | 0.00 | 76 | 1014.9 |
| 20260503041532 | 1 | 0 | 0.0 | 3.2 | 0.00 | 0.03 | 0.00 | 75 | 1015.0 |
| 20260503040029 | 1 | 0 | 0.0 | 3.2 | 0.00 | 0.03 | 0.00 | 75 | 1015.0 |
| 20260503034528 | 2 | 0 | 0.0 | 3.2 | 0.00 | 0.03 | 0.03 | 74 | 1015.0 |
| 20260503033033 | 2 | 0 | 0.0 | 3.2 | 0.00 | 0.03 | 0.03 | 74 | 1015.1 |
| 20260503031535 | 2 | 285 | 0.0 | 3.2 | 0.00 | 0.03 | 0.03 | 75 | 1015.1 |
| 20260503030034 | 2 | 0 | 0.0 | 3.2 | 0.00 | 0.03 | 0.03 | 74 | 1015.2 |
| 20260503024535 | 2 | 281 | 0.0 | 3.2 | 0.00 | 0.03 | 0.03 | 73 | 1015.2 |
| 20260503023031 | 2 | 281 | 0.0 | 3.2 | 0.00 | 0.03 | 0.03 | 73 | 1015.2 |
| 20260503021532 | 2 | 0 | 0.0 | 0.0 | 0.00 | 0.03 | 0.03 | 72 | 1015.4 |
| 20260503020030 | 2 | 0 | 0.0 | 3.2 | 0.00 | 0.03 | 0.03 | 71 | 1015.4 |
| 20260503014528 | 2 | 292 | 0.0 | 3.2 | 0.00 | 0.03 | 0.03 | 69 | 1015.2 |
| 20260503013034 | 2 | 282 | 0.0 | 3.2 | 0.00 | 0.03 | 0.03 | 69 | 1015.2 |
| 20260503011530 | 2 | 0 | 0.0 | 1.6 | 0.00 | 0.03 | 0.03 | 69 | 1015.1 |
| 20260503010033 | 3 | 0 | 0.0 | 3.2 | 0.00 | 0.03 | 0.03 | 70 | 1015.0 |
| 20260503004555 | 3 | 282 | 0.0 | 3.2 | 0.00 | 0.03 | 0.03 | 69 | 1015.0 |
| 20260503003036 | 3 | 0 | 0.0 | 3.2 | 0.00 | 0.03 | 0.03 | 69 | 1014.8 |
| 20260503001530 | 3 | 0 | 0.0 | 3.2 | 0.00 | 0.03 | 0.03 | 70 | 1014.7 |
| 20260503000030 | 3 | 290 | 0.0 | 3.2 | 0.00 | 0.03 | 0.03 | 67 | 1014.7 |
| 20260502234534 | 3 | 274 | 0.0 | 3.2 | 0.00 | 0.03 | 0.03 | 67 | 1014.6 |
| 20260502233031 | 3 | 263 | 0.0 | 3.2 | 0.03 | 0.03 | 0.03 | 67 | 1014.6 |
| 20260502231529 | 3 | 286 | 0.0 | 3.2 | 0.03 | 0.03 | 0.03 | 66 | 1014.5 |
| 20260502230030 | 4 | 0 | 0.0 | 3.2 | 0.03 | 0.03 | 0.03 | 65 | 1014.6 |
| 20260502224530 | 4 | 301 | 1.6 | 4.8 | 0.03 | 0.03 | 0.03 | 65 | 1014.5 |
| 20260502223028 | 4 | 284 | 0.0 | 4.8 | 0.00 | 0.00 | 0.00 | 65 | 1014.4 |
| 20260502221531 | 5 | 278 | 1.6 | 4.8 | 0.00 | 0.00 | 0.00 | 65 | 1014.3 |
| 20260502220030 | 5 | 274 | 1.6 | 4.8 | 0.00 | 0.00 | 0.00 | 66 | 1014.3 |
| 20260502214528 | 5 | 0 | 0.0 | 6.4 | 0.00 | 0.03 | 0.00 | 70 | 1014.3 |
| 20260502213038 | 5 | 277 | 0.0 | 6.4 | 0.00 | 0.03 | 0.00 | 73 | 1014.3 |